{"data":{"norad_id":68726,"epoch":"2026-09-19T11:14:02.266656Z","epoch_age_seconds":130493,"freshness":"FRESH","line1":"1 68726U 26081AD  26262.46808179  .00029084  00000+0  86846-3 0  9994","line2":"2 68726  53.1580 210.2765 0001505  88.7473 271.3702 15.34403780 24467","mean_motion":15.3440378,"eccentricity":0.0001505,"inclination_deg":53.158,"raan_deg":210.2765,"arg_perigee_deg":88.7473,"mean_anomaly_deg":271.3702,"bstar":0.00086846,"rev_number":2446,"period_min":93.84752688761,"perigee_km":461.66246050828,"apogee_km":463.72155003886,"semimajor_km":6840.8290052736,"source":"CELESTRAK","updated_at":"2026-09-20T09:00:43.988670Z"}}